Location: Sevilla
(37.3933°N, 5.9839°W)
Time: 22:40:42
(UTC+02:00)

Vanguard 2 Rocket - Visible Passes

Search period start: 23 June 2024 00:00
Search period end: 03 July 2024 00:00
Orbit: 554 x 3304 km, 32.9° (Epoch: 23 June)

Date Brightness Start Highest point End Pass type
(mag) Time Alt. Az. Time Alt. Az. Time Alt. Az.
23 Jun 10.2 01:34:27 23° SE 01:34:27 23° SE 01:46:39 10° E visible
23 Jun 9.7 03:39:54 36° SSW 03:48:26 53° SSE 04:06:38 10° E visible
23 Jun 9.6 05:45:56 10° WSW 06:06:09 74° S 06:22:35 10° E visible
24 Jun 10.5 00:34:28 12° ESE 00:34:28 12° ESE 00:37:18 10° ESE visible
24 Jun 9.6 02:39:55 39° SSE 02:43:53 42° SE 03:01:44 10° E visible
24 Jun 9.6 04:45:22 20° WSW 05:00:55 69° SSE 05:18:55 10° E visible
25 Jun 9.8 01:39:50 31° SE 01:39:54 31° SE 01:55:52 10° E visible
25 Jun 9.5 03:45:17 33° SW 03:55:48 61° SSE 04:14:43 10° E visible
25 Jun 9.6 05:53:41 10° WSW 06:13:56 77° S 06:30:39 10° E visible
26 Jun 10.2 00:39:40 20° ESE 00:39:40 20° ESE 00:48:33 10° E visible
26 Jun 9.5 02:45:06 41° S 02:51:02 51° SSE 03:09:55 10° E visible
26 Jun 9.5 04:50:32 13° WSW 05:08:34 74° S 05:26:57 10° E visible
27 Jun 9.5 01:44:48 39° SSE 01:46:49 40° SE 02:04:23 10° E visible
27 Jun 9.5 03:50:13 25° SW 04:03:16 68° SSE 04:22:42 10° E visible
27 Jun 9.6 06:01:31 10° W 06:21:41 77° S 06:38:39 10° ESE visible
28 Jun 9.8 00:44:19 28° SE 00:44:19 28° SE 00:57:54 10° E visible
28 Jun 9.4 02:49:43 36° SW 02:58:18 60° SSE 03:17:53 10° E visible
28 Jun 9.6 04:57:04 10° WSW 05:16:16 77° S 05:34:55 10° E visible
28 Jun 10.1 23:43:34 16° ESE 23:43:34 16° ESE 23:49:48 10° E visible
29 Jun 9.3 01:48:56 40° S 01:53:54 49° SSE 02:12:29 10° E visible
29 Jun 9.5 03:54:17 13° WSW 04:10:51 74° SSE 04:30:36 10° E visible
29 Jun 9.6 06:09:23 10° W 06:29:23 74° S 06:46:33 10° ESE visible
30 Jun 9.3 00:47:37 35° SSE 00:50:10 37° SE 01:06:26 10° E visible
30 Jun 9.3 02:52:53 20° SW 03:05:43 67° SSE 03:25:45 10° E visible
30 Jun 9.6 05:04:56 10° W 05:23:59 77° S 05:42:49 10° E visible
30 Jun 9.5 23:38:01 10° S 23:47:05 24° SE 23:59:29 10° E visible
01 Jul 9.2 01:47:25 10° SW 02:01:08 57° SSE 02:20:23 10° E visible
01 Jul 9.4 04:01:03 10° WSW 04:18:31 77° S 04:38:28 10° E visible
01 Jul 9.6 06:17:15 10° W 06:36:58 69° SSW 06:54:17 10° ESE visible
01 Jul 9.7 22:39:38 10° SSE 22:44:34 13° SE 22:50:27 10° ESE visible
02 Jul 9.2 00:45:31 10° SSW 00:57:12 45° SE 01:14:32 10° E visible
02 Jul 9.3 02:57:44 10° WSW 03:13:16 73° SSE 03:33:34 10° E visible
02 Jul 9.6 05:12:51 10° W 05:31:39 75° S 05:50:36 10° ESE visible
